Time,TemperatureF,DewpointF,PressureIn,WindDirection,WindDirectionDegrees,WindSpeedMPH,WindSpeedGustMPH,Humidity,HourlyPrecipIn,Conditions,Clouds,dailyrainin,SoftwareType,DateUTC
2014-01-13 00:01:00,24.4,7.0,30.45,NNE,23,0.0,0.0,47,0.00,CLR,FEW,0.00,WeatherDisplay:10.37,2014-01-13 07:01:00,
2014-01-13 00:06:00,24.5,7.1,30.46,NE,48,1.2,0.0,47,0.00,CLR,FEW,0.00,WeatherDisplay:10.37,2014-01-13 07:06:00,
2014-01-13 00:12:00,24.6,7.2,30.46,NNE,28,3.0,3.0,47,0.00,CLR,FEW,0.00,WeatherDisplay:10.37,2014-01-13 07:12:00,
2014-01-13 00:17:00,24.6,7.2,30.47,NNE,30,3.5,0.0,47,0.00,CLR,FEW,0.00,WeatherDisplay:10.37,2014-01-13 07:17:00,
2014-01-13 00:22:00,24.5,7.1,30.47,NE,36,0.0,0.0,47,0.00,CLR,FEW,0.00,WeatherDisplay:10.37,2014-01-13 07:22:00,
2014-01-13 00:27:00,24.5,7.1,30.48,NNW,345,0.0,0.0,47,0.00,CLR,FEW,0.00,WeatherDisplay:10.37,2014-01-13 07:27:00,
2014-01-13 00:32:00,24.3,6.9,30.48,NNW,345,0.0,0.0,47,0.00,CLR,FEW,0.00,WeatherDisplay:10.37,2014-01-13 07:32:00,
2014-01-13 00:37:00,24.0,7.1,30.48,NNW,345,0.0,0.0,48,0.00,CLR,FEW,0.00,WeatherDisplay:10.37,2014-01-13 07:37:00,
2014-01-13 00:42:00,23.7,6.8,30.49,NNW,345,0.0,0.0,48,0.00,CLR,FEW,0.00,WeatherDisplay:10.37,2014-01-13 07:42:00,
2014-01-13 00:47:00,23.4,7.0,30.49,NNW,345,3.5,3.5,49,0.00,CLR,FEW,0.00,WeatherDisplay:10.37,2014-01-13 07:47:00,
2014-01-13 00:52:00,23.1,6.7,30.49,NNW,345,0.0,0.0,49,0.00,CLR,FEW,0.00,WeatherDisplay:10.37,2014-01-13 07:52:00,
2014-01-13 00:57:00,22.9,6.6,30.49,NNW,345,0.0,0.0,49,0.00,CLR,FEW,0.00,WeatherDisplay:10.37,2014-01-13 07:57:00,
2014-01-13 01:02:00,22.7,6.8,30.49,NNW,345,0.0,0.0,50,0.00,CLR,FEW,0.00,WeatherDisplay:10.37,2014-01-13 08:02:00,
2014-01-13 01:07:00,22.6,6.7,30.49,NNW,345,0.0,0.0,50,0.00,CLR,FEW,0.00,WeatherDisplay:10.37,2014-01-13 08:07:00,
2014-01-13 01:12:00,22.2,6.8,30.49,NNW,345,0.0,0.0,51,0.00,CLR,FEW,0.00,WeatherDisplay:10.37,2014-01-13 08:12:00,
2014-01-13 01:17:00,21.3,6.8,30.49,NNW,345,0.0,0.0,53,0.00,CLR,FEW,0.00,WeatherDisplay:10.37,2014-01-13 08:17:00,
2014-01-13 01:22:00,20.4,6.4,30.49,NNW,345,0.0,0.0,54,0.00,CLR,FEW,0.00,WeatherDisplay:10.37,2014-01-13 08:22:00,
2014-01-13 01:27:00,20.3,6.7,30.49,North,350,0.0,0.0,55,0.00,CLR,FEW,0.00,WeatherDisplay:10.37,2014-01-13 08:27:00,
2014-01-13 01:32:00,20.3,6.7,30.49,NNE,14,0.0,0.0,55,0.00,CLR,FEW,0.00,WeatherDisplay:10.37,2014-01-13 08:32:00,
2014-01-13 01:37:00,20.3,6.7,30.49,NNE,14,0.0,0.0,55,0.00,CLR,FEW,0.00,WeatherDisplay:10.37,2014-01-13 08:37:00,
2014-01-13 01:42:00,19.9,6.7,30.50,NNE,14,0.0,0.0,56,0.00,CLR,FEW,0.00,WeatherDisplay:10.37,2014-01-13 08:42:00,
2014-01-13 01:47:00,19.6,6.8,30.50,NNE,14,0.0,0.0,57,0.00,CLR,FEW,0.00,WeatherDisplay:10.37,2014-01-13 08:47:00,
2014-01-13 01:52:00,19.2,6.4,30.50,NNE,14,0.0,0.0,57,0.00,CLR,FEW,0.00,WeatherDisplay:10.37,2014-01-13 08:52:00,
2014-01-13 01:57:00,18.8,6.4,30.51,NNE,14,0.0,0.0,58,0.00,CLR,FEW,0.00,WeatherDisplay:10.37,2014-01-13 08:57:00,
2014-01-13 02:02:00,18.4,6.4,30.50,NNE,14,0.0,0.0,59,0.00,CLR,FEW,0.00,WeatherDisplay:10.37,2014-01-13 09:02:00,
2014-01-13 02:07:00,17.9,6.3,30.51,NNE,14,0.0,0.0,60,0.00,CLR,FEW,0.00,WeatherDisplay:10.37,2014-01-13 09:07:00,
2014-01-13 02:12:00,17.7,6.5,30.51,North,359,2.3,2.3,61,0.00,CLR,FEW,0.00,WeatherDisplay:10.37,2014-01-13 09:12:00,
2014-01-13 02:17:00,17.7,6.9,30.51,NNW,345,4.6,4.6,62,0.00,CLR,FEW,0.00,WeatherDisplay:10.37,2014-01-13 09:17:00,
2014-01-13 02:22:00,18.0,7.2,30.51,NW,323,3.5,3.5,62,0.00,CLR,FEW,0.00,WeatherDisplay:10.37,2014-01-13 09:22:00,
2014-01-13 02:27:00,18.4,7.2,30.52,North,350,3.5,3.5,61,0.00,CLR,FEW,0.00,WeatherDisplay:10.37,2014-01-13 09:27:00,
2014-01-13 02:32:00,18.6,7.0,30.52,NW,326,2.3,2.3,60,0.00,CLR,FEW,0.00,WeatherDisplay:10.37,2014-01-13 09:32:00,
2014-01-13 02:37:00,18.7,7.1,30.52,NNW,332,0.0,0.0,60,0.00,CLR,FEW,0.00,WeatherDisplay:10.37,2014-01-13 09:37:00,
2014-01-13 02:42:00,18.7,7.1,30.52,NW,323,0.0,0.0,60,0.00,CLR,FEW,0.00,WeatherDisplay:10.37,2014-01-13 09:42:00,
2014-01-13 02:47:00,18.7,7.1,30.52,NNW,327,3.5,3.5,60,0.00,CLR,FEW,0.00,WeatherDisplay:10.37,2014-01-13 09:47:00,
2014-01-13 02:52:00,18.6,7.0,30.51,NNW,345,4.0,4.0,60,0.00,CLR,FEW,0.00,WeatherDisplay:10.37,2014-01-13 09:52:00,
2014-01-13 02:57:00,18.6,7.0,30.51,NW,324,4.6,4.6,60,0.00,CLR,FEW,0.00,WeatherDisplay:10.37,2014-01-13 09:57:00,
2014-01-13 03:02:00,18.5,6.9,30.51,NNW,332,1.2,1.2,60,0.00,CLR,FEW,0.00,WeatherDisplay:10.37,2014-01-13 10:02:00,
2014-01-13 03:07:00,18.3,6.7,30.51,NNW,330,3.5,0.0,60,0.00,CLR,FEW,0.00,WeatherDisplay:10.37,2014-01-13 10:07:00,
2014-01-13 03:12:00,18.1,6.9,30.51,NNW,329,1.2,1.2,61,0.00,CLR,FEW,0.00,WeatherDisplay:10.37,2014-01-13 10:12:00,
2014-01-13 03:17:00,17.7,6.5,30.52,NNW,336,2.3,2.3,61,0.00,CLR,FEW,0.00,WeatherDisplay:10.37,2014-01-13 10:17:00,
2014-01-13 03:22:00,17.6,6.8,30.53,NNW,340,3.5,0.0,62,0.00,CLR,FEW,0.00,WeatherDisplay:10.37,2014-01-13 10:22:00,
2014-01-13 03:27:00,17.5,6.7,30.53,NNW,345,0.0,0.0,62,0.00,CLR,FEW,0.00,WeatherDisplay:10.37,2014-01-13 10:27:00,
2014-01-13 03:32:00,17.5,6.3,30.52,NNW,345,0.0,0.0,61,0.00,CLR,FEW,0.00,WeatherDisplay:10.37,2014-01-13 10:32:00,
2014-01-13 03:37:00,17.4,6.2,30.52,NNW,345,0.0,0.0,61,0.00,CLR,FEW,0.00,WeatherDisplay:10.37,2014-01-13 10:37:00,
2014-01-13 03:42:00,17.2,6.0,30.52,NNW,345,0.0,0.0,61,0.00,CLR,FEW,0.00,WeatherDisplay:10.37,2014-01-13 10:42:00,
2014-01-13 03:47:00,17.1,5.9,30.53,NNW,345,0.0,0.0,61,0.00,CLR,FEW,0.00,WeatherDisplay:10.37,2014-01-13 10:47:00,
2014-01-13 03:52:00,16.9,5.8,30.53,NNW,345,0.0,0.0,61,0.00,CLR,FEW,0.00,WeatherDisplay:10.37,2014-01-13 10:52:00,
2014-01-13 03:57:00,16.3,5.9,30.53,NNW,345,0.0,0.0,63,0.00,CLR,FEW,0.00,WeatherDisplay:10.37,2014-01-13 10:57:00,
2014-01-13 04:02:00,16.0,5.6,30.53,NNW,345,0.0,0.0,63,0.00,CLR,FEW,0.00,WeatherDisplay:10.37,2014-01-13 11:02:00,
2014-01-13 04:07:00,15.5,5.5,30.53,ENE,76,3.0,3.0,64,0.00,CLR,FEW,0.00,WeatherDisplay:10.37,2014-01-13 11:07:00,
2014-01-13 04:12:00,15.0,5.3,30.54,ENE,75,0.0,0.0,65,0.00,CLR,FEW,0.00,WeatherDisplay:10.37,2014-01-13 11:12:00,
2014-01-13 04:17:00,14.7,5.4,30.54,ENE,75,0.0,0.0,66,0.00,CLR,FEW,0.00,WeatherDisplay:10.37,2014-01-13 11:17:00,
2014-01-13 04:22:00,14.5,5.2,30.55,ENE,75,0.0,0.0,66,0.00,CLR,FEW,0.00,WeatherDisplay:10.37,2014-01-13 11:22:00,
2014-01-13 04:27:00,14.3,5.0,30.54,ENE,75,0.0,0.0,66,0.00,CLR,FEW,0.00,WeatherDisplay:10.37,2014-01-13 11:27:00,
2014-01-13 04:32:00,14.0,5.1,30.55,ENE,74,0.0,0.0,67,0.00,CLR,FEW,0.00,WeatherDisplay:10.37,2014-01-13 11:32:00,
2014-01-13 04:37:00,13.7,4.8,30.55,ENE,74,0.0,0.0,67,0.00,CLR,FEW,0.00,WeatherDisplay:10.37,2014-01-13 11:37:00,
2014-01-13 04:42:00,13.5,4.9,30.56,ENE,74,0.0,0.0,68,0.00,CLR,FEW,0.00,WeatherDisplay:10.37,2014-01-13 11:42:00,
2014-01-13 04:47:00,13.4,5.1,30.56,ENE,74,0.0,0.0,69,0.00,CLR,FEW,0.00,WeatherDisplay:10.37,2014-01-13 11:47:00,
2014-01-13 04:52:00,13.2,4.9,30.56,ENE,74,0.0,0.0,69,0.00,CLR,FEW,0.00,WeatherDisplay:10.37,2014-01-13 11:52:00,
2014-01-13 04:57:00,13.1,4.8,30.56,ENE,74,0.0,0.0,69,0.00,CLR,FEW,0.00,WeatherDisplay:10.37,2014-01-13 11:57:00,
2014-01-13 05:02:00,13.0,4.7,30.56,ENE,74,0.0,0.0,69,0.00,CLR,FEW,0.00,WeatherDisplay:10.37,2014-01-13 12:02:00,
2014-01-13 05:07:00,12.8,4.5,30.56,ENE,74,0.0,0.0,69,0.00,CLR,FEW,0.00,WeatherDisplay:10.37,2014-01-13 12:07:00,
2014-01-13 05:12:00,12.6,4.7,30.56,ENE,74,0.0,0.0,70,0.00,CLR,FEW,0.00,WeatherDisplay:10.37,2014-01-13 12:12:00,
2014-01-13 05:17:00,12.4,4.5,30.57,ENE,74,0.0,0.0,70,0.00,CLR,FEW,0.00,WeatherDisplay:10.37,2014-01-13 12:17:00,
2014-01-13 05:23:00,12.3,4.4,30.56,ENE,74,1.2,0.0,70,0.00,CLR,FEW,0.00,WeatherDisplay:10.37,2014-01-13 12:23:00,
2014-01-13 05:28:00,12.2,4.3,30.56,North,11,0.0,0.0,70,0.00,CLR,FEW,0.00,WeatherDisplay:10.37,2014-01-13 12:28:00,
2014-01-13 05:33:00,12.2,4.3,30.56,North,4,2.3,2.3,70,0.00,CLR,FEW,0.00,WeatherDisplay:10.37,2014-01-13 12:33:00,
2014-01-13 05:38:00,12.1,4.5,30.57,North,1,3.5,3.5,71,0.00,CLR,FEW,0.00,WeatherDisplay:10.37,2014-01-13 12:38:00,
2014-01-13 05:43:00,12.1,4.5,30.57,North,350,5.0,5.0,71,0.00,CLR,FEW,0.00,WeatherDisplay:10.37,2014-01-13 12:43:00,
2014-01-13 05:48:00,12.6,5.0,30.56,NNW,338,2.3,2.3,71,0.00,CLR,FEW,0.00,WeatherDisplay:10.37,2014-01-13 12:48:00,
2014-01-13 05:53:00,12.8,5.2,30.56,NNW,339,3.5,3.5,71,0.00,CLR,FEW,0.00,WeatherDisplay:10.37,2014-01-13 12:53:00,
2014-01-13 05:58:00,13.0,5.4,30.56,NNW,339,0.0,0.0,71,0.00,CLR,FEW,0.00,WeatherDisplay:10.37,2014-01-13 12:58:00,
2014-01-13 06:03:00,13.0,5.0,30.56,NNW,339,0.0,0.0,70,0.00,CLR,FEW,0.00,WeatherDisplay:10.37,2014-01-13 13:03:00,
2014-01-13 06:08:00,13.0,5.0,30.57,NNW,339,0.0,0.0,70,0.00,CLR,FEW,0.00,WeatherDisplay:10.37,2014-01-13 13:08:00,
2014-01-13 06:13:00,13.0,5.0,30.57,NNW,339,0.0,0.0,70,0.00,CLR,FEW,0.00,WeatherDisplay:10.37,2014-01-13 13:13:00,
2014-01-13 06:18:00,12.9,4.6,30.57,NNW,339,0.0,0.0,69,0.00,CLR,FEW,0.00,WeatherDisplay:10.37,2014-01-13 13:18:00,
2014-01-13 06:23:00,12.7,4.4,30.58,NNW,339,0.0,0.0,69,0.00,CLR,FEW,0.00,WeatherDisplay:10.37,2014-01-13 13:23:00,
2014-01-13 06:28:00,12.5,4.3,30.58,NNW,339,2.3,2.3,69,0.00,CLR,FEW,0.00,WeatherDisplay:10.37,2014-01-13 13:28:00,
2014-01-13 06:33:00,12.1,4.2,30.57,NNW,339,1.2,0.0,70,0.00,CLR,FEW,0.00,WeatherDisplay:10.37,2014-01-13 13:33:00,
2014-01-13 06:38:00,11.8,4.2,30.57,NNW,339,2.3,2.3,71,0.00,CLR,FEW,0.00,WeatherDisplay:10.37,2014-01-13 13:38:00,
2014-01-13 06:43:00,11.6,4.0,30.58,NNW,339,0.0,0.0,71,0.00,CLR,FEW,0.00,WeatherDisplay:10.37,2014-01-13 13:43:00,
2014-01-13 06:48:00,11.4,3.8,30.58,NNW,339,2.3,2.3,71,0.00,CLR,FEW,0.00,WeatherDisplay:10.37,2014-01-13 13:48:00,
2014-01-13 06:53:00,11.3,4.0,30.58,NNW,338,3.5,3.5,72,0.00,CLR,FEW,0.00,WeatherDisplay:10.37,2014-01-13 13:53:00,
2014-01-13 06:58:00,11.2,3.9,30.59,NNW,338,2.3,0.0,72,0.00,CLR,FEW,0.00,WeatherDisplay:10.37,2014-01-13 13:58:00,
2014-01-13 07:03:00,11.1,3.8,30.59,NNW,345,0.0,0.0,72,0.00,CLR,FEW,0.00,WeatherDisplay:10.37,2014-01-13 14:03:00,
2014-01-13 07:08:00,11.1,3.8,30.59,NNW,345,0.0,0.0,72,0.00,CLR,FEW,0.00,WeatherDisplay:10.37,2014-01-13 14:08:00,
2014-01-13 07:13:00,11.0,3.7,30.60,NNW,345,2.3,0.0,72,0.00,CLR,FEW,0.00,WeatherDisplay:10.37,2014-01-13 14:13:00,
2014-01-13 07:18:00,10.9,3.9,30.60,NNW,345,0.0,0.0,73,0.00,CLR,FEW,0.00,WeatherDisplay:10.37,2014-01-13 14:18:00,
2014-01-13 07:23:00,10.8,3.8,30.60,NNW,338,5.8,5.8,73,0.00,CLR,FEW,0.00,WeatherDisplay:10.37,2014-01-13 14:23:00,
2014-01-13 07:28:00,10.7,3.7,30.60,NNW,345,6.9,6.9,73,0.00,CLR,FEW,0.00,WeatherDisplay:10.37,2014-01-13 14:28:00,
2014-01-13 07:33:00,10.8,4.1,30.60,NNW,345,4.6,4.6,74,0.00,CLR,FEW,0.00,WeatherDisplay:10.37,2014-01-13 14:33:00,
2014-01-13 07:38:00,10.9,4.2,30.61,North,359,3.5,3.5,74,0.00,CLR,FEW,0.00,WeatherDisplay:10.37,2014-01-13 14:38:00,
2014-01-13 07:43:00,11.0,4.3,30.62,NNW,345,3.5,3.5,74,0.00,CLR,FEW,0.00,WeatherDisplay:10.37,2014-01-13 14:43:00,
2014-01-13 07:48:00,11.1,4.4,30.62,NNW,337,3.5,3.5,74,0.00,CLR,FEW,0.00,WeatherDisplay:10.37,2014-01-13 14:48:00,
2014-01-13 07:53:00,11.1,4.4,30.63,NNW,345,3.5,3.5,74,0.00,CLR,FEW,0.00,WeatherDisplay:10.37,2014-01-13 14:53:00,
2014-01-13 07:58:00,11.2,4.5,30.63,NNW,345,2.3,0.0,74,0.00,CLR,FEW,0.00,WeatherDisplay:10.37,2014-01-13 14:58:00,
2014-01-13 08:03:00,11.3,4.6,30.63,NNW,345,0.0,0.0,74,0.00,CLR,FEW,0.00,WeatherDisplay:10.37,2014-01-13 15:03:00,
2014-01-13 08:08:00,11.4,4.7,30.63,NNW,345,0.0,0.0,74,0.00,CLR,FEW,0.00,WeatherDisplay:10.37,2014-01-13 15:08:00,
2014-01-13 08:13:00,11.5,4.8,30.64,NNW,345,0.0,0.0,74,0.00,CLR,FEW,0.00,WeatherDisplay:10.37,2014-01-13 15:13:00,
2014-01-13 08:18:00,11.6,4.9,30.64,NNW,345,0.0,0.0,74,0.00,CLR,FEW,0.00,WeatherDisplay:10.37,2014-01-13 15:18:00,
2014-01-13 08:23:00,11.7,5.0,30.64,NNW,345,0.0,0.0,74,0.00,CLR,FEW,0.00,WeatherDisplay:10.37,2014-01-13 15:23:00,
2014-01-13 08:28:00,12.2,5.8,30.65,NNW,345,1.2,0.0,75,0.00,CLR,FEW,0.00,WeatherDisplay:10.37,2014-01-13 15:28:00,
2014-01-13 08:33:00,13.0,6.9,30.65,NNW,345,2.3,2.3,76,0.00,CLR,FEW,0.00,WeatherDisplay:10.37,2014-01-13 15:33:00,
2014-01-13 08:38:00,14.1,7.6,30.65,NNW,345,1.2,1.2,75,0.00,CLR,FEW,0.00,WeatherDisplay:10.37,2014-01-13 15:38:00,
2014-01-13 08:43:00,14.8,8.0,30.65,NW,320,3.5,3.5,74,0.00,CLR,FEW,0.00,WeatherDisplay:10.37,2014-01-13 15:43:00,
2014-01-13 08:48:00,15.6,8.5,30.66,NW,317,0.0,0.0,73,0.00,CLR,FEW,0.00,WeatherDisplay:10.37,2014-01-13 15:48:00,
2014-01-13 08:53:00,16.6,8.8,30.66,NNW,338,4.0,4.1,71,0.00,CLR,FEW,0.00,WeatherDisplay:10.37,2014-01-13 15:53:00,
2014-01-13 08:58:00,17.5,9.1,30.66,NNW,331,5.8,5.8,69,0.00,CLR,FEW,0.00,WeatherDisplay:10.37,2014-01-13 15:58:00,
2014-01-13 09:03:00,18.2,9.4,30.66,NNW,339,3.5,0.0,68,0.00,CLR,FEW,0.00,WeatherDisplay:10.37,2014-01-13 16:03:00,
2014-01-13 09:08:00,18.9,9.7,30.67,NNW,339,0.0,0.0,67,0.00,CLR,FEW,0.00,WeatherDisplay:10.37,2014-01-13 16:08:00,
2014-01-13 09:13:00,19.5,9.6,30.67,NNW,339,0.0,0.0,65,0.00,CLR,FEW,0.00,WeatherDisplay:10.37,2014-01-13 16:13:00,
2014-01-13 09:18:00,20.4,10.1,30.67,NNW,339,0.0,0.0,64,0.00,CLR,FEW,0.00,WeatherDisplay:10.37,2014-01-13 16:18:00,
2014-01-13 09:23:00,21.0,10.0,30.68,NNW,339,0.0,0.0,62,0.00,CLR,FEW,0.00,WeatherDisplay:10.37,2014-01-13 16:23:00,
2014-01-13 09:28:00,21.8,10.4,30.68,NNW,338,0.0,0.0,61,0.00,CLR,FEW,0.00,WeatherDisplay:10.37,2014-01-13 16:28:00,
2014-01-13 09:33:00,22.5,10.7,30.68,NNW,338,0.0,0.0,60,0.00,CLR,FEW,0.00,WeatherDisplay:10.37,2014-01-13 16:33:00,
2014-01-13 09:38:00,23.2,10.6,30.68,NNW,338,0.0,0.0,58,0.00,CLR,FEW,0.00,WeatherDisplay:10.37,2014-01-13 16:38:00,
2014-01-13 09:43:00,23.8,10.8,30.68,NNW,338,0.0,0.0,57,0.00,CLR,FEW,0.00,WeatherDisplay:10.37,2014-01-13 16:43:00,
2014-01-13 09:48:00,24.5,11.8,30.68,WSW,255,3.5,3.5,58,0.00,CLR,FEW,0.00,WeatherDisplay:10.37,2014-01-13 16:48:00,
2014-01-13 09:53:00,25.0,11.5,30.69,WSW,240,3.5,3.5,56,0.00,CLR,FEW,0.00,WeatherDisplay:10.37,2014-01-13 16:53:00,
2014-01-13 09:58:00,25.3,11.4,30.69,WSW,237,3.5,3.5,55,0.00,CLR,FEW,0.00,WeatherDisplay:10.37,2014-01-13 16:58:00,
2014-01-13 10:03:00,25.6,11.2,30.69,SW,228,3.5,3.5,54,0.00,CLR,FEW,0.00,WeatherDisplay:10.37,2014-01-13 17:03:00,
2014-01-13 10:08:00,26.1,11.7,30.69,SSW,202,4.0,4.0,54,0.00,CLR,FEW,0.00,WeatherDisplay:10.37,2014-01-13 17:08:00,
2014-01-13 10:13:00,26.4,11.1,30.69,SSW,205,2.3,2.3,52,0.00,CLR,FEW,0.00,WeatherDisplay:10.37,2014-01-13 17:13:00,
2014-01-13 10:18:00,26.9,11.2,30.68,SSW,205,2.3,2.3,51,0.00,CLR,FEW,0.00,WeatherDisplay:10.37,2014-01-13 17:18:00,
2014-01-13 10:23:00,27.3,11.1,30.68,SSW,198,4.6,4.6,50,0.00,CLR,FEW,0.00,WeatherDisplay:10.37,2014-01-13 17:23:00,
2014-01-13 10:28:00,27.7,11.5,30.68,SSW,211,4.6,4.6,50,0.00,CLR,FEW,0.00,WeatherDisplay:10.37,2014-01-13 17:28:00,
2014-01-13 10:33:00,28.1,11.4,30.68,SSW,203,3.5,3.5,49,0.00,CLR,FEW,0.00,WeatherDisplay:10.37,2014-01-13 17:33:00,
2014-01-13 10:38:00,28.5,11.3,30.68,South,182,1.2,1.2,48,0.00,CLR,FEW,0.00,WeatherDisplay:10.37,2014-01-13 17:38:00,
2014-01-13 10:43:00,28.9,11.2,30.68,South,188,1.2,1.2,47,0.00,CLR,FEW,0.00,WeatherDisplay:10.37,2014-01-13 17:43:00,
2014-01-13 10:48:00,29.3,11.5,30.68,SSW,207,3.5,3.5,47,0.00,CLR,FEW,0.00,WeatherDisplay:10.37,2014-01-13 17:48:00,
2014-01-13 10:53:00,29.6,11.8,30.68,SSW,210,3.5,3.5,47,0.00,CLR,FEW,0.00,WeatherDisplay:10.37,2014-01-13 17:53:00,
2014-01-13 10:58:00,30.1,12.3,30.68,SSW,201,1.2,0.0,47,0.00,CLR,FEW,0.00,WeatherDisplay:10.37,2014-01-13 17:58:00,
2014-01-13 11:03:00,30.5,12.2,30.67,SSW,203,2.0,2.0,46,0.00,CLR,FEW,0.00,WeatherDisplay:10.37,2014-01-13 18:03:00,
2014-01-13 11:08:00,30.7,12.3,30.67,SW,227,3.5,3.5,46,0.00,CLR,FEW,0.00,WeatherDisplay:10.37,2014-01-13 18:08:00,
2014-01-13 11:14:00,31.1,11.7,30.67,SSE,155,4.6,4.6,44,0.00,CLR,FEW,0.00,WeatherDisplay:10.37,2014-01-13 18:14:00,
2014-01-13 11:19:00,31.2,11.8,30.67,SW,233,3.5,3.5,44,0.00,CLR,FEW,0.00,WeatherDisplay:10.37,2014-01-13 18:19:00,
2014-01-13 11:24:00,31.5,12.1,30.67,SW,215,3.5,3.5,44,0.00,CLR,FEW,0.00,WeatherDisplay:10.37,2014-01-13 18:24:00,
2014-01-13 11:29:00,31.6,12.2,30.66,SE,132,3.5,3.5,44,0.00,CLR,FEW,0.00,WeatherDisplay:10.37,2014-01-13 18:29:00,
2014-01-13 11:34:00,31.7,11.7,30.66,SSW,210,3.5,0.0,43,0.00,CLR,FEW,0.00,WeatherDisplay:10.37,2014-01-13 18:34:00,
2014-01-13 11:39:00,32.0,12.5,30.66,East,80,4.0,4.0,44,0.00,CLR,FEW,0.00,WeatherDisplay:10.37,2014-01-13 18:39:00,
2014-01-13 11:44:00,32.2,11.6,30.65,SSW,196,4.6,4.6,42,0.00,CLR,FEW,0.00,WeatherDisplay:10.37,2014-01-13 18:44:00,
2014-01-13 11:49:00,32.4,11.8,30.65,SSE,166,3.5,3.5,42,0.00,CLR,FEW,0.00,WeatherDisplay:10.37,2014-01-13 18:49:00,
2014-01-13 11:54:00,32.7,12.6,30.64,ESE,105,3.5,3.5,43,0.00,CLR,FEW,0.00,WeatherDisplay:10.37,2014-01-13 18:54:00,
2014-01-13 11:59:00,33.0,12.9,30.63,SSW,201,2.3,2.3,43,0.00,CLR,FEW,0.00,WeatherDisplay:10.37,2014-01-13 18:59:00,
2014-01-13 12:04:00,33.4,12.7,30.63,South,183,2.3,2.3,42,0.00,CLR,FEW,0.00,WeatherDisplay:10.37,2014-01-13 19:04:00,
2014-01-13 12:09:00,33.9,13.2,30.62,ESE,109,2.3,2.3,42,0.00,CLR,FEW,0.00,WeatherDisplay:10.37,2014-01-13 19:09:00,
2014-01-13 12:14:00,34.3,13.6,30.62,SSE,149,1.2,0.0,42,0.00,CLR,FEW,0.00,WeatherDisplay:10.37,2014-01-13 19:14:00,
2014-01-13 12:19:00,34.8,13.5,30.62,South,180,3.5,0.0,41,0.00,CLR,FEW,0.00,WeatherDisplay:10.37,2014-01-13 19:19:00,
2014-01-13 12:24:00,35.3,13.9,30.62,WSW,257,1.2,0.0,41,0.00,CLR,FEW,0.00,WeatherDisplay:10.37,2014-01-13 19:24:00,
2014-01-13 12:29:00,35.8,13.2,30.62,SW,215,6.9,6.9,39,0.00,CLR,FEW,0.00,WeatherDisplay:10.37,2014-01-13 19:29:00,
2014-01-13 12:34:00,36.0,13.4,30.61,SSW,192,1.2,1.2,39,0.00,CLR,FEW,0.00,WeatherDisplay:10.37,2014-01-13 19:34:00,
2014-01-13 12:39:00,36.2,13.6,30.61,South,190,3.5,3.5,39,0.00,CLR,FEW,0.00,WeatherDisplay:10.37,2014-01-13 19:39:00,
2014-01-13 12:44:00,36.6,13.9,30.61,South,172,4.6,4.6,39,0.00,CLR,FEW,0.00,WeatherDisplay:10.37,2014-01-13 19:44:00,
2014-01-13 12:49:00,36.8,12.9,30.60,SSW,198,6.0,6.0,37,0.00,CLR,FEW,0.00,WeatherDisplay:10.37,2014-01-13 19:49:00,
2014-01-13 12:54:00,36.9,14.2,30.60,SSW,197,2.3,2.3,39,0.00,CLR,FEW,0.00,WeatherDisplay:10.37,2014-01-13 19:54:00,
2014-01-13 12:59:00,37.1,13.2,30.60,SSW,208,5.8,5.8,37,0.00,CLR,FEW,0.00,WeatherDisplay:10.37,2014-01-13 19:59:00,
2014-01-13 13:04:00,37.1,13.8,30.59,SW,226,4.6,4.6,38,0.00,CLR,FEW,0.00,WeatherDisplay:10.37,2014-01-13 20:04:00,
2014-01-13 13:09:00,37.4,14.7,30.59,SW,224,3.5,3.5,39,0.00,CLR,FEW,0.00,WeatherDisplay:10.37,2014-01-13 20:09:00,
2014-01-13 13:14:00,37.7,13.7,30.59,WSW,249,3.5,3.5,37,0.00,CLR,FEW,0.00,WeatherDisplay:10.37,2014-01-13 20:14:00,
2014-01-13 13:19:00,37.8,13.8,30.59,SW,221,4.6,4.6,37,0.00,CLR,FEW,0.00,WeatherDisplay:10.37,2014-01-13 20:19:00,
2014-01-13 13:24:00,37.9,13.9,30.59,SSW,213,3.5,3.5,37,0.00,CLR,FEW,0.00,WeatherDisplay:10.37,2014-01-13 20:24:00,
2014-01-13 13:29:00,38.0,13.4,30.59,SW,232,1.2,0.0,36,0.00,CLR,FEW,0.00,WeatherDisplay:10.37,2014-01-13 20:29:00,
2014-01-13 13:34:00,38.2,12.9,30.58,SW,232,1.2,1.2,35,0.00,CLR,FEW,0.00,WeatherDisplay:10.37,2014-01-13 20:34:00,
2014-01-13 13:39:00,38.5,13.8,30.58,SE,143,4.6,4.6,36,0.00,CLR,FEW,0.00,WeatherDisplay:10.37,2014-01-13 20:39:00,
2014-01-13 13:44:00,38.7,14.0,30.58,SSE,151,4.0,4.0,36,0.00,CLR,FEW,0.00,WeatherDisplay:10.37,2014-01-13 20:44:00,
2014-01-13 13:49:00,38.7,14.0,30.58,SSW,197,3.5,3.5,36,0.00,CLR,FEW,0.00,WeatherDisplay:10.37,2014-01-13 20:49:00,
2014-01-13 13:54:00,38.7,14.0,30.58,SE,125,3.5,3.5,36,0.00,CLR,FEW,0.00,WeatherDisplay:10.37,2014-01-13 20:54:00,
2014-01-13 13:59:00,38.5,13.8,30.58,ESE,123,1.2,0.0,36,0.00,CLR,FEW,0.00,WeatherDisplay:10.37,2014-01-13 20:59:00,
2014-01-13 14:04:00,38.6,14.5,30.58,ESE,123,2.0,2.0,37,0.00,CLR,FEW,0.00,WeatherDisplay:10.37,2014-01-13 21:04:00,
2014-01-13 14:09:00,38.6,13.9,30.58,SSW,203,3.5,3.5,36,0.00,CLR,FEW,0.00,WeatherDisplay:10.37,2014-01-13 21:09:00,
2014-01-13 14:10:00,38.6,13.9,30.58,SW,217,5.0,5.0,36,0.00,CLR,FEW,0.00,WeatherDisplay:10.37,2014-01-13 21:10:00,
2014-01-13 14:15:00,39.1,15.0,30.58,SW,216,3.5,3.5,37,0.00,CLR,FEW,0.00,WeatherDisplay:10.37,2014-01-13 21:15:00,
2014-01-13 14:20:00,39.4,14.6,30.58,SW,223,3.5,3.5,36,0.00,CLR,FEW,0.00,WeatherDisplay:10.37,2014-01-13 21:20:00,
2014-01-13 14:25:00,39.6,14.8,30.58,South,190,1.2,1.2,36,0.00,CLR,FEW,0.00,WeatherDisplay:10.37,2014-01-13 21:25:00,
2014-01-13 14:30:00,39.8,15.0,30.58,South,184,2.3,2.3,36,0.00,CLR,FEW,0.00,WeatherDisplay:10.37,2014-01-13 21:30:00,
2014-01-13 14:35:00,40.0,14.5,30.57,South,184,1.2,1.2,35,0.00,CLR,FEW,0.00,WeatherDisplay:10.37,2014-01-13 21:35:00,
2014-01-13 14:40:00,40.3,14.8,30.57,WSW,243,0.0,0.0,35,0.00,CLR,FEW,0.00,WeatherDisplay:10.37,2014-01-13 21:40:00,
2014-01-13 14:45:00,40.6,15.0,30.57,WSW,238,2.3,2.3,35,0.00,CLR,FEW,0.00,WeatherDisplay:10.37,2014-01-13 21:45:00,
2014-01-13 14:50:00,40.9,14.6,30.57,ENE,75,2.3,2.3,34,0.00,CLR,FEW,0.00,WeatherDisplay:10.37,2014-01-13 21:50:00,
2014-01-13 14:55:00,41.0,16.0,30.57,SSE,154,1.2,0.0,36,0.00,CLR,FEW,0.00,WeatherDisplay:10.37,2014-01-13 21:55:00,
2014-01-13 15:00:00,41.2,15.6,30.57,SSE,147,2.3,2.3,35,0.00,CLR,FEW,0.00,WeatherDisplay:10.37,2014-01-13 22:00:00,
2014-01-13 15:05:00,41.0,16.0,30.57,ENE,68,5.8,5.8,36,0.00,CLR,FEW,0.00,WeatherDisplay:10.37,2014-01-13 22:05:00,
2014-01-13 15:10:00,40.6,15.0,30.57,SE,130,2.0,2.0,35,0.00,CLR,FEW,0.00,WeatherDisplay:10.37,2014-01-13 22:10:00,
2014-01-13 15:15:00,40.6,15.0,30.57,SSE,157,1.2,1.2,35,0.00,CLR,FEW,0.00,WeatherDisplay:10.37,2014-01-13 22:15:00,
2014-01-13 15:20:00,40.7,15.1,30.57,SSE,157,0.0,0.0,35,0.00,CLR,FEW,0.00,WeatherDisplay:10.37,2014-01-13 22:20:00,
2014-01-13 15:25:00,40.9,15.3,30.57,East,83,2.3,2.3,35,0.00,CLR,FEW,0.00,WeatherDisplay:10.37,2014-01-13 22:25:00,
2014-01-13 15:30:00,40.7,15.1,30.57,ESE,123,1.2,1.2,35,0.00,CLR,FEW,0.00,WeatherDisplay:10.37,2014-01-13 22:30:00,
2014-01-13 15:35:00,40.8,15.2,30.56,East,101,0.0,0.0,35,0.00,CLR,FEW,0.00,WeatherDisplay:10.37,2014-01-13 22:35:00,
2014-01-13 15:40:00,41.0,15.4,30.56,ESE,122,1.2,1.2,35,0.00,CLR,FEW,0.00,WeatherDisplay:10.37,2014-01-13 22:40:00,
2014-01-13 15:45:00,41.1,15.5,30.57,SE,146,0.0,0.0,35,0.00,CLR,FEW,0.00,WeatherDisplay:10.37,2014-01-13 22:45:00,
2014-01-13 15:50:00,41.2,16.2,30.57,SSE,165,0.0,0.1,36,0.00,CLR,FEW,0.00,WeatherDisplay:10.37,2014-01-13 22:50:00,
2014-01-13 15:55:00,41.4,15.8,30.57,SSE,165,1.2,1.2,35,0.00,CLR,FEW,0.00,WeatherDisplay:10.37,2014-01-13 22:55:00,
2014-01-13 16:00:00,41.6,15.9,30.57,SE,128,2.3,2.3,35,0.00,CLR,FEW,0.00,WeatherDisplay:10.37,2014-01-13 23:00:00,
2014-01-13 16:05:00,41.6,15.9,30.56,SE,128,0.0,0.0,35,0.00,CLR,FEW,0.00,WeatherDisplay:10.37,2014-01-13 23:05:00,
2014-01-13 16:10:00,41.6,15.9,30.56,SE,128,0.0,0.0,35,0.00,CLR,FEW,0.00,WeatherDisplay:10.37,2014-01-13 23:10:00,
2014-01-13 16:15:00,41.7,16.0,30.56,SE,128,0.0,0.0,35,0.00,CLR,FEW,0.00,WeatherDisplay:10.37,2014-01-13 23:15:00,
2014-01-13 16:20:00,41.7,16.0,30.56,SE,128,0.0,0.0,35,0.00,CLR,FEW,0.00,WeatherDisplay:10.37,2014-01-13 23:20:00,
2014-01-13 16:25:00,41.6,15.9,30.56,SE,128,0.0,0.0,35,0.00,CLR,FEW,0.00,WeatherDisplay:10.37,2014-01-13 23:25:00,
2014-01-13 16:30:00,41.6,15.9,30.56,SE,128,0.0,0.0,35,0.00,CLR,FEW,0.00,WeatherDisplay:10.37,2014-01-13 23:30:00,
2014-01-13 16:35:00,41.5,16.5,30.56,SE,128,1.2,0.0,36,0.00,CLR,FEW,0.00,WeatherDisplay:10.37,2014-01-13 23:35:00,
2014-01-13 16:40:00,41.5,15.8,30.56,SE,128,0.0,0.0,35,0.00,CLR,FEW,0.00,WeatherDisplay:10.37,2014-01-13 23:40:00,
2014-01-13 16:45:00,41.5,15.8,30.56,SE,128,0.0,0.0,35,0.00,CLR,FEW,0.00,WeatherDisplay:10.37,2014-01-13 23:45:00,
2014-01-13 16:50:00,41.3,15.7,30.56,SE,128,0.0,0.0,35,0.00,CLR,FEW,0.00,WeatherDisplay:10.37,2014-01-13 23:50:00,
2014-01-13 16:55:00,41.2,16.2,30.55,SE,128,1.0,0.0,36,0.00,CLR,FEW,0.00,WeatherDisplay:10.37,2014-01-13 23:55:00,
2014-01-13 17:00:00,40.9,16.0,30.55,SE,128,0.0,0.0,36,0.00,CLR,FEW,0.00,WeatherDisplay:10.37,2014-01-14 00:00:00,
2014-01-13 17:05:00,40.5,15.6,30.55,SE,128,0.0,0.0,36,0.00,CLR,FEW,0.00,WeatherDisplay:10.37,2014-01-14 00:05:00,
2014-01-13 17:10:00,40.3,15.4,30.55,SE,128,0.0,0.0,36,0.00,CLR,FEW,0.00,WeatherDisplay:10.37,2014-01-14 00:10:00,
2014-01-13 17:15:00,39.8,15.6,30.55,SE,128,0.0,0.0,37,0.00,CLR,FEW,0.00,WeatherDisplay:10.37,2014-01-14 00:15:00,
2014-01-13 17:20:00,39.3,15.8,30.56,SE,128,0.0,0.0,38,0.00,CLR,FEW,0.00,WeatherDisplay:10.37,2014-01-14 00:20:00,
2014-01-13 17:25:00,38.1,14.7,30.55,SE,128,0.0,0.0,38,0.00,CLR,FEW,0.00,WeatherDisplay:10.37,2014-01-14 00:25:00,
2014-01-13 17:30:00,37.2,15.1,30.56,SE,128,0.0,0.0,40,0.00,CLR,FEW,0.00,WeatherDisplay:10.37,2014-01-14 00:30:00,
2014-01-13 17:35:00,36.2,14.2,30.56,SE,128,0.0,0.0,40,0.00,CLR,FEW,0.00,WeatherDisplay:10.37,2014-01-14 00:35:00,
2014-01-13 17:40:00,35.6,14.2,30.56,SE,128,0.0,0.0,41,0.00,CLR,FEW,0.00,WeatherDisplay:10.37,2014-01-14 00:40:00,
2014-01-13 17:46:00,35.0,14.2,30.56,SE,128,0.0,0.0,42,0.00,CLR,FEW,0.00,WeatherDisplay:10.37,2014-01-14 00:46:00,
2014-01-13 17:51:00,34.1,13.9,30.56,SE,128,0.0,0.0,43,0.00,CLR,FEW,0.00,WeatherDisplay:10.37,2014-01-14 00:51:00,
2014-01-13 17:56:00,33.4,13.8,30.56,SE,128,1.0,0.0,44,0.00,CLR,FEW,0.00,WeatherDisplay:10.37,2014-01-14 00:56:00,
2014-01-13 18:01:00,32.3,13.8,30.56,SE,128,0.0,0.0,46,0.00,CLR,FEW,0.00,WeatherDisplay:10.37,2014-01-14 01:01:00,
2014-01-13 18:06:00,31.7,13.7,30.55,SE,128,0.0,0.0,47,0.00,CLR,FEW,0.00,WeatherDisplay:10.37,2014-01-14 01:06:00,
2014-01-13 18:11:00,30.8,13.4,30.55,SE,128,0.0,0.0,48,0.00,CLR,FEW,0.00,WeatherDisplay:10.37,2014-01-14 01:11:00,
2014-01-13 18:16:00,29.9,13.5,30.56,West,269,3.5,3.5,50,0.00,CLR,FEW,0.00,WeatherDisplay:10.37,2014-01-14 01:16:00,
2014-01-13 18:21:00,29.4,13.9,30.56,WNW,282,1.2,0.0,52,0.00,CLR,FEW,0.00,WeatherDisplay:10.37,2014-01-14 01:21:00,
2014-01-13 18:26:00,28.4,14.7,30.56,North,359,3.5,3.5,56,0.00,CLR,FEW,0.00,WeatherDisplay:10.37,2014-01-14 01:26:00,
2014-01-13 18:31:00,27.6,14.3,30.56,North,7,1.2,1.2,57,0.00,CLR,FEW,0.00,WeatherDisplay:10.37,2014-01-14 01:31:00,
2014-01-13 18:36:00,27.1,14.3,30.56,NNE,14,3.5,3.5,58,0.00,CLR,FEW,0.00,WeatherDisplay:10.37,2014-01-14 01:36:00,
2014-01-13 18:41:00,26.9,14.9,30.56,North,4,5.8,5.8,60,0.00,CLR,FEW,0.00,WeatherDisplay:10.37,2014-01-14 01:41:00,
2014-01-13 18:46:00,26.9,14.9,30.56,North,3,0.0,0.0,60,0.00,CLR,FEW,0.00,WeatherDisplay:10.37,2014-01-14 01:46:00,
2014-01-13 18:51:00,26.9,14.9,30.56,North,4,0.0,0.0,60,0.00,CLR,FEW,0.00,WeatherDisplay:10.37,2014-01-14 01:51:00,
2014-01-13 18:56:00,26.8,14.4,30.57,North,4,0.0,0.0,59,0.00,CLR,FEW,0.00,WeatherDisplay:10.37,2014-01-14 01:56:00,
2014-01-13 19:01:00,26.7,13.9,30.57,North,3,2.0,0.0,58,0.00,CLR,FEW,0.00,WeatherDisplay:10.37,2014-01-14 02:01:00,
2014-01-13 19:06:00,26.4,14.4,30.58,North,1,0.0,0.0,60,0.00,CLR,FEW,0.00,WeatherDisplay:10.37,2014-01-14 02:06:00,
2014-01-13 19:11:00,26.3,14.3,30.58,North,1,0.0,0.0,60,0.00,CLR,FEW,0.00,WeatherDisplay:10.37,2014-01-14 02:11:00,
2014-01-13 19:16:00,25.9,14.7,30.58,North,1,3.5,3.5,62,0.00,CLR,FEW,0.00,WeatherDisplay:10.37,2014-01-14 02:16:00,
2014-01-13 19:21:00,25.4,14.5,30.58,North,1,3.5,3.5,63,0.00,CLR,FEW,0.00,WeatherDisplay:10.37,2014-01-14 02:21:00,
2014-01-13 19:26:00,25.2,14.4,30.58,North,2,0.0,0.0,63,0.00,CLR,FEW,0.00,WeatherDisplay:10.37,2014-01-14 02:26:00,
2014-01-13 19:31:00,25.1,13.9,30.58,North,2,0.0,0.0,62,0.00,CLR,FEW,0.00,WeatherDisplay:10.37,2014-01-14 02:31:00,
2014-01-13 19:36:00,25.2,13.6,30.58,North,2,0.0,0.0,61,0.00,CLR,FEW,0.00,WeatherDisplay:10.37,2014-01-14 02:36:00,
2014-01-13 19:41:00,25.2,13.6,30.58,North,2,0.0,0.0,61,0.00,CLR,FEW,0.00,WeatherDisplay:10.37,2014-01-14 02:41:00,
2014-01-13 19:46:00,25.1,13.9,30.58,North,2,0.0,0.0,62,0.00,CLR,FEW,0.00,WeatherDisplay:10.37,2014-01-14 02:46:00,
2014-01-13 19:51:00,24.8,14.0,30.59,North,2,0.0,0.1,63,0.00,CLR,FEW,0.00,WeatherDisplay:10.37,2014-01-14 02:51:00,
2014-01-13 19:56:00,24.4,14.0,30.59,North,360,3.5,3.5,64,0.00,CLR,FEW,0.00,WeatherDisplay:10.37,2014-01-14 02:56:00,
2014-01-13 20:01:00,24.1,13.7,30.59,North,359,0.0,0.0,64,0.00,CLR,FEW,0.00,WeatherDisplay:10.37,2014-01-14 03:01:00,
2014-01-13 20:06:00,24.0,13.6,30.59,North,359,0.0,0.0,64,0.00,CLR,FEW,0.00,WeatherDisplay:10.37,2014-01-14 03:06:00,
2014-01-13 20:11:00,23.9,13.8,30.60,North,359,0.0,0.0,65,0.00,CLR,FEW,0.00,WeatherDisplay:10.37,2014-01-14 03:11:00,
2014-01-13 20:16:00,23.8,13.7,30.59,North,359,0.0,0.0,65,0.00,CLR,FEW,0.00,WeatherDisplay:10.37,2014-01-14 03:16:00,
2014-01-13 20:21:00,23.7,13.6,30.60,North,359,0.0,0.0,65,0.00,CLR,FEW,0.00,WeatherDisplay:10.37,2014-01-14 03:21:00,
2014-01-13 20:26:00,23.5,13.5,30.60,NNW,345,3.5,3.5,65,0.00,CLR,FEW,0.00,WeatherDisplay:10.37,2014-01-14 03:26:00,
2014-01-13 20:31:00,23.1,13.8,30.60,North,355,5.8,5.8,67,0.00,CLR,FEW,0.00,WeatherDisplay:10.37,2014-01-14 03:31:00,
2014-01-13 20:36:00,22.9,13.9,30.60,North,355,3.5,3.5,68,0.00,CLR,FEW,0.00,WeatherDisplay:10.37,2014-01-14 03:36:00,
2014-01-13 20:41:00,23.0,14.0,30.59,North,350,4.0,4.0,68,0.00,CLR,FEW,0.00,WeatherDisplay:10.37,2014-01-14 03:41:00,
2014-01-13 20:46:00,23.1,14.1,30.59,NNW,334,3.5,0.0,68,0.00,CLR,FEW,0.00,WeatherDisplay:10.37,2014-01-14 03:46:00,
2014-01-13 20:51:00,23.1,14.4,30.59,NNW,334,0.0,0.0,69,0.00,CLR,FEW,0.00,WeatherDisplay:10.37,2014-01-14 03:51:00,
2014-01-13 20:56:00,22.9,13.9,30.59,NNW,334,0.0,0.0,68,0.00,CLR,FEW,0.00,WeatherDisplay:10.37,2014-01-14 03:56:00,
2014-01-13 21:01:00,22.7,13.7,30.59,NNW,334,0.0,0.0,68,0.00,CLR,FEW,0.00,WeatherDisplay:10.37,2014-01-14 04:01:00,
2014-01-13 21:06:00,22.7,13.7,30.60,NNW,334,0.0,0.0,68,0.00,CLR,FEW,0.00,WeatherDisplay:10.37,2014-01-14 04:06:00,
2014-01-13 21:11:00,22.6,13.3,30.60,NNW,334,0.0,0.0,67,0.00,CLR,FEW,0.00,WeatherDisplay:10.37,2014-01-14 04:11:00,
2014-01-13 21:16:00,22.5,13.5,30.60,NNW,334,0.0,0.0,68,0.00,CLR,FEW,0.00,WeatherDisplay:10.37,2014-01-14 04:16:00,
2014-01-13 21:21:00,22.4,13.4,30.60,NNW,334,0.0,0.0,68,0.00,CLR,FEW,0.00,WeatherDisplay:10.37,2014-01-14 04:21:00,
2014-01-13 21:26:00,22.0,13.0,30.61,NNW,334,1.2,1.2,68,0.00,CLR,FEW,0.00,WeatherDisplay:10.37,2014-01-14 04:26:00,
2014-01-13 21:31:00,21.6,13.0,30.61,NNW,334,0.0,0.0,69,0.00,CLR,FEW,0.00,WeatherDisplay:10.37,2014-01-14 04:31:00,
2014-01-13 21:36:00,21.4,13.1,30.61,NNW,334,0.0,0.0,70,0.00,CLR,FEW,0.00,WeatherDisplay:10.37,2014-01-14 04:36:00,
2014-01-13 21:41:00,21.2,12.9,30.62,NNW,334,0.0,0.0,70,0.00,CLR,FEW,0.00,WeatherDisplay:10.37,2014-01-14 04:41:00,
2014-01-13 21:46:00,21.0,12.7,30.62,NNW,334,0.0,0.0,70,0.00,CLR,FEW,0.00,WeatherDisplay:10.37,2014-01-14 04:46:00,
2014-01-13 21:51:00,20.8,12.6,30.62,NNW,334,0.0,0.0,70,0.00,CLR,FEW,0.00,WeatherDisplay:10.37,2014-01-14 04:51:00,
2014-01-13 21:56:00,20.6,12.7,30.62,NNW,334,0.0,0.0,71,0.00,CLR,FEW,0.00,WeatherDisplay:10.37,2014-01-14 04:56:00,
2014-01-13 22:01:00,20.4,12.5,30.62,NNW,334,1.2,1.2,71,0.00,CLR,FEW,0.00,WeatherDisplay:10.37,2014-01-14 05:01:00,
2014-01-13 22:02:00,20.3,12.7,30.62,NNW,334,0.0,0.0,72,0.00,CLR,FEW,0.00,WeatherDisplay:10.37,2014-01-14 05:02:00,
2014-01-13 22:07:00,20.0,12.4,30.62,North,3,2.3,2.3,72,0.00,CLR,FEW,0.00,WeatherDisplay:10.37,2014-01-14 05:07:00,
2014-01-13 22:12:00,19.9,12.6,30.62,North,359,0.0,0.0,73,0.00,CLR,FEW,0.00,WeatherDisplay:10.37,2014-01-14 05:12:00,
2014-01-13 22:17:00,19.9,12.6,30.63,North,359,0.0,0.0,73,0.00,CLR,FEW,0.00,WeatherDisplay:10.37,2014-01-14 05:17:00,
2014-01-13 22:22:00,19.8,12.5,30.63,North,355,0.0,0.0,73,0.00,CLR,FEW,0.00,WeatherDisplay:10.37,2014-01-14 05:22:00,
2014-01-13 22:28:00,19.7,12.4,30.63,North,355,0.0,0.0,73,0.00,CLR,FEW,0.00,WeatherDisplay:10.37,2014-01-14 05:28:00,
2014-01-13 22:33:00,19.6,12.3,30.63,North,355,0.0,0.0,73,0.00,CLR,FEW,0.00,WeatherDisplay:10.37,2014-01-14 05:33:00,
2014-01-13 22:38:00,19.5,12.3,30.63,North,355,2.0,2.0,73,0.00,CLR,FEW,0.00,WeatherDisplay:10.37,2014-01-14 05:38:00,
2014-01-13 22:43:00,19.3,12.4,30.63,North,350,0.0,0.0,74,0.00,CLR,FEW,0.00,WeatherDisplay:10.37,2014-01-14 05:43:00,
2014-01-13 22:48:00,19.1,12.2,30.63,North,350,3.5,3.5,74,0.00,CLR,FEW,0.00,WeatherDisplay:10.37,2014-01-14 05:48:00,
2014-01-13 22:53:00,19.0,12.4,30.63,North,350,0.0,0.0,75,0.00,CLR,FEW,0.00,WeatherDisplay:10.37,2014-01-14 05:53:00,
2014-01-13 22:58:00,18.9,12.3,30.63,NNW,345,3.5,3.5,75,0.00,CLR,FEW,0.00,WeatherDisplay:10.37,2014-01-14 05:58:00,
2014-01-13 23:03:00,18.8,12.2,30.64,NNW,345,0.0,0.0,75,0.00,CLR,FEW,0.00,WeatherDisplay:10.37,2014-01-14 06:03:00,
2014-01-13 23:08:00,18.7,12.4,30.64,North,350,3.5,3.5,76,0.00,CLR,FEW,0.00,WeatherDisplay:10.37,2014-01-14 06:08:00,
2014-01-13 23:13:00,18.7,12.4,30.63,NNW,336,2.0,2.0,76,0.00,CLR,FEW,0.00,WeatherDisplay:10.37,2014-01-14 06:13:00,
2014-01-13 23:18:00,18.8,12.8,30.63,NNW,338,3.5,3.5,77,0.00,CLR,FEW,0.00,WeatherDisplay:10.37,2014-01-14 06:18:00,
2014-01-13 23:23:00,18.9,12.9,30.63,NNW,338,5.8,5.8,77,0.00,CLR,FEW,0.00,WeatherDisplay:10.37,2014-01-14 06:23:00,
2014-01-13 23:28:00,18.8,12.8,30.63,NNW,345,0.0,0.0,77,0.00,CLR,FEW,0.00,WeatherDisplay:10.37,2014-01-14 06:28:00,
2014-01-13 23:33:00,18.7,12.7,30.64,NNW,345,5.8,5.8,77,0.00,CLR,FEW,0.00,WeatherDisplay:10.37,2014-01-14 06:33:00,
2014-01-13 23:38:00,18.6,12.6,30.64,North,1,4.0,4.0,77,0.00,CLR,FEW,0.00,WeatherDisplay:10.37,2014-01-14 06:38:00,
2014-01-13 23:43:00,18.6,12.6,30.64,NNW,345,3.5,3.5,77,0.00,CLR,FEW,0.00,WeatherDisplay:10.37,2014-01-14 06:43:00,
2014-01-13 23:48:00,18.7,12.7,30.64,NNW,339,6.0,6.0,77,0.00,CLR,FEW,0.00,WeatherDisplay:10.37,2014-01-14 06:48:00,
2014-01-13 23:53:00,18.8,12.8,30.65,NNW,335,3.5,3.5,77,0.00,CLR,FEW,0.00,WeatherDisplay:10.37,2014-01-14 06:53:00,
2014-01-13 23:58:00,18.8,12.8,30.64,NNW,335,3.5,3.5,77,0.00,CLR,FEW,0.00,WeatherDisplay:10.37,2014-01-14 06:58:00,